Location: Mahannah Oil Field
(37.4664°N, 96.6003°W)
Time: 02:03:47
(UTC+00:00)

deb Explorer IX - Pass Details

Date: 28 January 2021
Orbit: 537 x 1102 km, 38.8° (Epoch: 25 February)

Event Time Altitude Azimuth Distance (km) Brightness Sun altitude
Rises 03:13:38 0° 284° (WNW) 3,511 ? -41.3°
Reaches altitude 10° 03:16:27 10° 280° (W) 2,473 ? -41.8°
Enters shadow 03:18:01 18° 276° (W) 1,910 ? -42.1°
Maximum altitude 03:22:05 53° 205° (SSW) 917 - -42.9°
Drops below altitude 10° 03:26:50 10° 129° (SE) 2,095 - -43.9°
Sets 03:29:03 0° 124° (SE) 2,929 - -44.3°
